SWA1252 KSAN-KLAS

Flight info

Callsign SWA1252
Flight time 0h 49m
Altitude 29000
Route PADRZ2 CHKNN SEBBY YELAH MISEN RNDRZ4
Aircraft B737/M-SDE2E3FGHIRWXY/LB1

Departure

Time 2026-05-04 00:18
Airport San Diego International Airport (KSAN)

Arrival

Time 2026-05-04 01:07
Airport Harry Reid International Airport (KLAS)
Time Latitude Longitude Altitude Speed Heading
2026-05-03 23:48 32.73316 -117.19568 19 ft 0 kts 230°
2026-05-04 00:07 32.73329 -117.19546 24 ft 4 kts 243°
2026-05-04 00:07 32.73338 -117.19517 22 ft 4 kts 266°
2026-05-04 00:08 32.73335 -117.19486 22 ft 4 kts 294°
2026-05-04 00:08 32.73320 -117.19460 23 ft 4 kts 322°
2026-05-04 00:08 32.73297 -117.19447 25 ft 4 kts
2026-05-04 00:08 32.73287 -117.19449 23 ft 1 kts 27°
2026-05-04 00:13 32.73288 -117.19449 23 ft 0 kts 27°
2026-05-04 00:14 32.73319 -117.19422 25 ft 11 kts 36°
2026-05-04 00:14 32.73337 -117.19309 20 ft 18 kts 106°
2026-05-04 00:14 32.73303 -117.19168 20 ft 18 kts 106°
2026-05-04 00:14 32.73269 -117.19031 23 ft 17 kts 106°
2026-05-04 00:15 32.73234 -117.18885 22 ft 19 kts 106°
2026-05-04 00:15 32.73197 -117.18733 27 ft 19 kts 106°
2026-05-04 00:15 32.73161 -117.18584 21 ft 19 kts 106°
2026-05-04 00:15 32.73125 -117.18433 22 ft 19 kts 106°
2026-05-04 00:16 32.73089 -117.18286 20 ft 18 kts 106°
2026-05-04 00:16 32.73052 -117.18138 18 ft 19 kts 106°
2026-05-04 00:16 32.73017 -117.17989 16 ft 19 kts 106°
2026-05-04 00:16 32.72981 -117.17841 16 ft 18 kts 106°
2026-05-04 00:17 32.72945 -117.17706 16 ft 13 kts 93°
2026-05-04 00:17 32.72964 -117.17627 19 ft 10 kts 72°
2026-05-04 00:17 32.73014 -117.17586 20 ft 11 kts 337°
2026-05-04 00:17 32.73067 -117.17772 18 ft 53 kts 286°
2026-05-04 00:18 32.73242 -117.18492 21 ft 124 kts 285°
2026-05-04 00:18 32.73522 -117.19645 311 ft 155 kts 287°
2026-05-04 00:18 32.73827 -117.20910 1085 ft 163 kts 285°
2026-05-04 00:18 32.74156 -117.22250 1915 ft 179 kts 285°
2026-05-04 00:19 32.74559 -117.23808 2349 ft 214 kts 285°
2026-05-04 00:19 32.75203 -117.25555 2801 ft 250 kts 310°
2026-05-04 00:19 32.76510 -117.26966 3891 ft 255 kts 311°
2026-05-04 00:19 32.77642 -117.28576 5014 ft 260 kts 305°
2026-05-04 00:20 32.78748 -117.30326 5963 ft 271 kts 303°
2026-05-04 00:20 32.79898 -117.32155 6914 ft 279 kts 303°
2026-05-04 00:20 32.81079 -117.34006 7695 ft 282 kts 303°
2026-05-04 00:20 32.82271 -117.35844 7984 ft 280 kts 303°
2026-05-04 00:21 32.83488 -117.37706 7987 ft 287 kts 304°
2026-05-04 00:21 32.84715 -117.39569 8002 ft 286 kts 304°
2026-05-04 00:21 32.85938 -117.41417 8041 ft 284 kts 304°
2026-05-04 00:21 32.87171 -117.43280 8537 ft 289 kts 304°
2026-05-04 00:22 32.88412 -117.45152 9722 ft 287 kts 303°
2026-05-04 00:22 32.89654 -117.47026 10704 ft 291 kts 303°
2026-05-04 00:22 32.90918 -117.48936 11597 ft 296 kts 303°
2026-05-04 00:22 32.92201 -117.50875 12563 ft 299 kts 303°
2026-05-04 00:23 32.93492 -117.52834 13549 ft 303 kts 302°
2026-05-04 00:23 32.94782 -117.54836 14411 ft 304 kts 301°
2026-05-04 00:23 32.96065 -117.56840 14789 ft 304 kts 301°
2026-05-04 00:23 32.97349 -117.58848 14970 ft 306 kts 301°
2026-05-04 00:24 32.98641 -117.60871 14981 ft 307 kts 301°
2026-05-04 00:24 32.99930 -117.62886 14993 ft 306 kts 301°
2026-05-04 00:24 33.01207 -117.64882 14998 ft 306 kts 301°
2026-05-04 00:24 33.02499 -117.66902 15019 ft 308 kts 301°
2026-05-04 00:25 33.03804 -117.68944 15668 ft 310 kts 301°
2026-05-04 00:25 33.05097 -117.70961 16809 ft 303 kts 300°
2026-05-04 00:25 33.06406 -117.72923 17869 ft 305 kts 303°
2026-05-04 00:25 33.07972 -117.74679 18732 ft 313 kts 309°
2026-05-04 00:26 33.09646 -117.76367 19479 ft 317 kts 310°
2026-05-04 00:26 33.11349 -117.78060 20238 ft 320 kts 310°
2026-05-04 00:26 33.13061 -117.79771 21020 ft 322 kts 309°
2026-05-04 00:26 33.14778 -117.81501 21809 ft 324 kts 309°
2026-05-04 00:27 33.16500 -117.83250 22586 ft 327 kts 309°
2026-05-04 00:27 33.18236 -117.85019 23341 ft 330 kts 309°
2026-05-04 00:27 33.19993 -117.86803 24026 ft 333 kts 309°
2026-05-04 00:27 33.21783 -117.88565 24717 ft 335 kts 309°
2026-05-04 00:28 33.23593 -117.90325 25405 ft 336 kts 309°
2026-05-04 00:28 33.25409 -117.92085 26057 ft 338 kts 309°
2026-05-04 00:28 33.27235 -117.93859 26708 ft 340 kts 308°
2026-05-04 00:28 33.29073 -117.95649 27351 ft 341 kts 308°
2026-05-04 00:29 33.30916 -117.97446 27990 ft 343 kts 308°
2026-05-04 00:29 33.32772 -117.99259 28613 ft 345 kts 308°
2026-05-04 00:29 33.34639 -118.01086 29003 ft 349 kts 308°
2026-05-04 00:29 33.36554 -118.02970 29008 ft 362 kts 308°
2026-05-04 00:30 33.38533 -118.04920 29018 ft 375 kts 308°
2026-05-04 00:30 33.40577 -118.06929 29029 ft 386 kts 309°
2026-05-04 00:30 33.42748 -118.08929 29013 ft 408 kts 317°
2026-05-04 00:30 33.45460 -118.10312 29034 ft 441 kts 332°
2026-05-04 00:31 33.48534 -118.10965 29013 ft 467 kts 344°
2026-05-04 00:31 33.51844 -118.10881 28996 ft 486 kts 356°
2026-05-04 00:31 33.55186 -118.09810 29007 ft 509 kts 12°
2026-05-04 00:31 33.58434 -118.08056 29000 ft 515 kts 17°
2026-05-04 00:32 33.64822 -118.04122 28945 ft 515 kts 19°
2026-05-04 00:32 33.71168 -118.00193 28942 ft 512 kts 18°
2026-05-04 00:33 33.80706 -117.94516 28975 ft 509 kts 17°
2026-05-04 00:34 33.87057 -117.90765 28975 ft 508 kts 17°
2026-05-04 00:34 33.93396 -117.87002 28974 ft 508 kts 17°
2026-05-04 00:35 33.99735 -117.83228 28995 ft 508 kts 17°
2026-05-04 00:35 34.06055 -117.79381 28986 ft 514 kts 22°
2026-05-04 00:36 34.11753 -117.73960 28983 ft 532 kts 41°
2026-05-04 00:36 34.16504 -117.67078 28970 ft 533 kts 46°
2026-05-04 00:37 34.21117 -117.60087 28973 ft 531 kts 46°
2026-05-04 00:37 34.25759 -117.53162 28956 ft 527 kts 46°
2026-05-04 00:38 34.30436 -117.46284 28948 ft 535 kts 45°
2026-05-04 00:38 34.35238 -117.39243 28905 ft 549 kts 46°
2026-05-04 00:39 34.40086 -117.32094 28891 ft 548 kts 46°
2026-05-04 00:39 34.44876 -117.25002 28896 ft 547 kts 46°
2026-05-04 00:40 34.49714 -117.17830 28890 ft 545 kts 46°
2026-05-04 00:40 34.54510 -117.10711 28875 ft 544 kts 46°
2026-05-04 00:41 34.58485 -117.04800 28853 ft 543 kts 46°
2026-05-04 00:41 34.64034 -116.96531 28805 ft 543 kts 46°
2026-05-04 00:42 34.67998 -116.90612 28792 ft 543 kts 46°
2026-05-04 00:42 34.72767 -116.83475 28788 ft 543 kts 46°
2026-05-04 00:43 34.77527 -116.76339 28795 ft 543 kts 46°
2026-05-04 00:43 34.83052 -116.68039 28780 ft 543 kts 47°
2026-05-04 00:44 34.87316 -116.62415 28721 ft 535 kts 35°
2026-05-04 00:44 34.90163 -116.59585 28222 ft 534 kts 32°
2026-05-04 00:44 34.93102 -116.56828 27635 ft 533 kts 31°
2026-05-04 00:44 34.96054 -116.54083 27051 ft 534 kts 32°
2026-05-04 00:45 34.98989 -116.51311 26465 ft 530 kts 32°
2026-05-04 00:45 35.01867 -116.48537 25861 ft 523 kts 33°
2026-05-04 00:45 35.04684 -116.45788 25265 ft 515 kts 33°
2026-05-04 00:45 35.07461 -116.43071 24684 ft 508 kts 33°
2026-05-04 00:46 35.10202 -116.40382 24142 ft 502 kts 35°
2026-05-04 00:46 35.12774 -116.37450 23886 ft 507 kts 41°
2026-05-04 00:46 35.15184 -116.34294 23339 ft 508 kts 45°
2026-05-04 00:46 35.17525 -116.31078 22681 ft 503 kts 45°
2026-05-04 00:47 35.19863 -116.27929 22026 ft 496 kts 45°
2026-05-04 00:47 35.22201 -116.24877 21372 ft 488 kts 44°
2026-05-04 00:47 35.24475 -116.21905 20746 ft 481 kts 46°
2026-05-04 00:47 35.26686 -116.18878 20128 ft 473 kts 47°
2026-05-04 00:48 35.28843 -116.15880 19522 ft 465 kts 48°
2026-05-04 00:48 35.30966 -116.12946 18987 ft 455 kts 48°
2026-05-04 00:48 35.33037 -116.10099 18790 ft 438 kts 48°
2026-05-04 00:48 35.35044 -116.07345 18369 ft 429 kts 49°
2026-05-04 00:49 35.37017 -116.04637 17895 ft 422 kts 49°
2026-05-04 00:49 35.38960 -116.01968 17315 ft 417 kts 49°
2026-05-04 00:49 35.40878 -115.99329 16746 ft 412 kts 50°
2026-05-04 00:49 35.42770 -115.96723 16180 ft 407 kts 50°
2026-05-04 00:50 35.44639 -115.94147 15641 ft 402 kts 50°
2026-05-04 00:50 35.46487 -115.91597 15182 ft 395 kts 50°
2026-05-04 00:50 35.48276 -115.89127 14747 ft 389 kts 50°
2026-05-04 00:50 35.50063 -115.86655 14315 ft 385 kts 51°
2026-05-04 00:51 35.51833 -115.84207 13893 ft 382 kts 51°
2026-05-04 00:51 35.53589 -115.81777 13467 ft 378 kts 51°
2026-05-04 00:51 35.55328 -115.79369 13038 ft 375 kts 51°
2026-05-04 00:51 35.57035 -115.77005 12980 ft 364 kts 51°
2026-05-04 00:52 35.58703 -115.74694 12974 ft 363 kts 51°
2026-05-04 00:52 35.60417 -115.72335 12990 ft 375 kts 50°
2026-05-04 00:52 35.62182 -115.69951 12980 ft 378 kts 50°
2026-05-04 00:52 35.63953 -115.67573 12969 ft 375 kts 50°
2026-05-04 00:53 35.65682 -115.65248 12987 ft 371 kts 50°
2026-05-04 00:53 35.67419 -115.62907 12954 ft 368 kts 50°
2026-05-04 00:53 35.69155 -115.60559 12984 ft 375 kts 50°
2026-05-04 00:53 35.70894 -115.58205 12971 ft 367 kts 50°
2026-05-04 00:54 35.72632 -115.55928 12966 ft 363 kts 45°
2026-05-04 00:54 35.74666 -115.54113 12855 ft 360 kts 31°
2026-05-04 00:54 35.76830 -115.52611 12540 ft 355 kts 29°
2026-05-04 00:54 35.78982 -115.51171 12477 ft 347 kts 29°
2026-05-04 00:55 35.81096 -115.49743 12504 ft 351 kts 30°
2026-05-04 00:55 35.83271 -115.48248 12490 ft 364 kts 30°
2026-05-04 00:55 35.85466 -115.46722 12473 ft 359 kts 30°
2026-05-04 00:55 35.87638 -115.45199 12492 ft 361 kts 30°
2026-05-04 00:56 35.89820 -115.43666 12498 ft 367 kts 31°
2026-05-04 00:56 35.92043 -115.42106 12496 ft 367 kts 30°
2026-05-04 00:56 35.94268 -115.40554 12489 ft 365 kts 30°
2026-05-04 00:56 35.96472 -115.39017 12497 ft 363 kts 30°
2026-05-04 00:57 35.98636 -115.37431 12336 ft 358 kts 38°
2026-05-04 00:57 36.00297 -115.35219 11973 ft 347 kts 62°
2026-05-04 00:57 36.01201 -115.32493 11380 ft 341 kts 82°
2026-05-04 00:57 36.01392 -115.29683 11025 ft 328 kts 96°
2026-05-04 00:58 36.01259 -115.26873 10644 ft 318 kts 99°
2026-05-04 00:58 36.01071 -115.24209 10302 ft 304 kts 100°
2026-05-04 00:58 36.00893 -115.21695 10015 ft 292 kts 100°
2026-05-04 00:58 36.00733 -115.19248 9745 ft 280 kts 99°
2026-05-04 00:59 36.00591 -115.16905 9517 ft 267 kts 99°
2026-05-04 00:59 36.00461 -115.14682 9326 ft 255 kts 99°
2026-05-04 00:59 36.00335 -115.12519 9144 ft 249 kts 100°
2026-05-04 00:59 36.00207 -115.10360 8978 ft 255 kts 99°
2026-05-04 01:00 36.00076 -115.08145 8739 ft 261 kts 99°
2026-05-04 01:00 35.99947 -115.05910 8489 ft 259 kts 98°
2026-05-04 01:00 35.99899 -115.03691 8233 ft 257 kts 96°
2026-05-04 01:00 35.99897 -115.01506 8071 ft 253 kts 95°
2026-05-04 01:01 35.99899 -114.99322 7819 ft 257 kts 95°
2026-05-04 01:01 35.99892 -114.97109 7391 ft 259 kts 96°
2026-05-04 01:01 35.99884 -114.94928 7053 ft 254 kts 95°
2026-05-04 01:01 36.00242 -114.92785 6642 ft 262 kts 66°
2026-05-04 01:02 36.01450 -114.91105 6290 ft 265 kts 37°
2026-05-04 01:02 36.03125 -114.90227 5885 ft 263 kts
2026-05-04 01:02 36.04891 -114.90470 5518 ft 250 kts 336°
2026-05-04 01:02 36.06375 -114.91443 5172 ft 235 kts 317°
2026-05-04 01:03 36.07247 -114.92977 4983 ft 203 kts 278°
2026-05-04 01:03 36.07373 -114.94588 4873 ft 181 kts 265°
2026-05-04 01:03 36.07387 -114.96091 4698 ft 169 kts 263°
2026-05-04 01:03 36.07385 -114.97523 4502 ft 164 kts 263°
2026-05-04 01:04 36.07382 -114.98915 4294 ft 160 kts 263°
2026-05-04 01:04 36.07380 -115.00256 4116 ft 152 kts 263°
2026-05-04 01:04 36.07378 -115.01538 3920 ft 148 kts 264°
2026-05-04 01:04 36.07375 -115.02810 3756 ft 150 kts 264°
2026-05-04 01:05 36.07373 -115.04122 3557 ft 154 kts 264°
2026-05-04 01:05 36.07372 -115.05428 3357 ft 146 kts 263°
2026-05-04 01:05 36.07372 -115.06632 3189 ft 138 kts 263°
2026-05-04 01:05 36.07369 -115.07827 3013 ft 141 kts 263°
2026-05-04 01:06 36.07370 -115.09028 2846 ft 139 kts 263°
2026-05-04 01:06 36.07374 -115.10261 2658 ft 146 kts 262°
2026-05-04 01:06 36.07374 -115.11461 2433 ft 137 kts 260°
2026-05-04 01:06 36.07372 -115.12640 2224 ft 140 kts 261°
2026-05-04 01:07 36.07367 -115.13774 2187 ft 115 kts 270°
2026-05-04 01:07 36.07367 -115.14551 2189 ft 69 kts 270°
2026-05-04 01:07 36.07412 -115.14916 2191 ft 30 kts 294°
2026-05-04 01:07 36.07475 -115.15057 2190 ft 17 kts 300°
2026-05-04 01:08 36.07532 -115.15129 2189 ft 7 kts 327°
2026-05-04 01:08 36.07540 -115.15136 2188 ft 0 kts 329°
2026-05-04 01:09 36.07545 -115.15139 2192 ft 5 kts 329°
2026-05-04 01:09 36.07629 -115.15189 2193 ft 21 kts 335°
2026-05-04 01:09 36.07745 -115.15258 2188 ft 15 kts 335°
2026-05-04 01:09 36.07831 -115.15304 2189 ft 13 kts 352°
2026-05-04 01:10 36.07881 -115.15233 2187 ft 12 kts 81°
2026-05-04 01:10 36.07947 -115.15202 2187 ft 11 kts 358°
2026-05-04 01:10 36.08023 -115.15203 2188 ft 11 kts 359°
2026-05-04 01:10 36.08085 -115.15172 2188 ft 10 kts 58°
2026-05-04 01:11 36.08103 -115.15095 2187 ft 9 kts 90°
2026-05-04 01:11 36.08102 -115.15022 2190 ft 7 kts 91°
2026-05-04 01:11 36.08101 -115.14959 2189 ft 8 kts 91°
2026-05-04 01:11 36.08064 -115.14903 2189 ft 11 kts 156°
2026-05-04 01:12 36.07994 -115.14865 2190 ft 11 kts 156°
2026-05-04 01:12 36.07928 -115.14825 2187 ft 10 kts 143°
2026-05-04 01:12 36.07909 -115.14744 2187 ft 10 kts 97°
2026-05-04 01:12 36.07936 -115.14684 2188 ft 6 kts 28°
2026-05-04 01:13 36.07953 -115.14672 2189 ft 2 kts 27°
2026-05-04 01:13 36.07956 -115.14671 2189 ft 0 kts 27°